• In Hungary
  • List of Countries
  • For 7 days
  • Water Temperature
  • Satellite Maps
  • Weather Map
  • News
  • Weather Widgets
  • user-avatar
    Login

    Hourly Weather Znamenka

    Today, 26 September, Wednesday

    Time Temperature Precipitation Wind Pressure Humidity
    00:00 +5°C° 0 mm 4 mps 754 mmHg 79%
    01:00 +5°C° 0 mm 4 mps 754 mmHg 79%
    02:00 +5°C° 0 mm 4 mps 754 mmHg 80%
    03:00 +5°C° 0 mm 4 mps 755 mmHg 81%
    04:00 +4°C° 0 mm 4 mps 755 mmHg 82%
    05:00 +4°C° 0 mm 4 mps 756 mmHg 83%
    06:00 +5°C° 0 mm 5 mps 756 mmHg 80%
    07:00 +6°C° 0 mm 5 mps 757 mmHg 76%
    08:00 +6°C° 0 mm 5 mps 757 mmHg 73%
    09:00 +7°C° 0 mm 6 mps 757 mmHg 66%
    10:00 +9°C° 0 mm 6 mps 758 mmHg 60%
    11:00 +10°C° 0 mm 6 mps 758 mmHg 53%
    12:00 +10°C° 0 mm 6 mps 758 mmHg 51%
    13:00 +10°C° 0 mm 6 mps 758 mmHg 49%
    14:00 +11°C° 0 mm 6 mps 758 mmHg 46%
    15:00 +10°C° 0 mm 5 mps 758 mmHg 48%
    16:00 +11°C° 0 mm 4 mps 758 mmHg 50%
    17:00 +10°C° 0 mm 3 mps 758 mmHg 51%
    18:00 +9°C° 0 mm 3 mps 758 mmHg 54%
    19:00 +8°C° 0 mm 3 mps 758 mmHg 56%
    20:00 +7°C° 0 mm 2 mps 759 mmHg 58%
    21:00 +7°C° 0 mm 2 mps 759 mmHg 58%
    22:00 +7°C° 0 mm 2 mps 759 mmHg 59%
    23:00 +6°C° 0 mm 2 mps 759 mmHg 60%

    Tomorrow, 27 September, Thursday

    Time Temperature Precipitation Wind Pressure Humidity
    00:00 +6°C° 0 mm 2 mps 758 mmHg 61%
    01:00 +5°C° 0 mm 3 mps 758 mmHg 62%
    02:00 +5°C° 0 mm 3 mps 758 mmHg 63%
    03:00 +4°C° 0 mm 3 mps 757 mmHg 63%
    04:00 +4°C° 0 mm 4 mps 757 mmHg 64%
    05:00 +4°C° 0 mm 4 mps 756 mmHg 65%
    06:00 +5°C° 0 mm 5 mps 756 mmHg 61%
    07:00 +7°C° 0 mm 6 mps 756 mmHg 58%
    08:00 +8°C° 0 mm 7 mps 756 mmHg 54%
    09:00 +9°C° 0 mm 7 mps 755 mmHg 50%
    10:00 +11°C° 0 mm 7 mps 755 mmHg 47%
    11:00 +12°C° 0 mm 8 mps 755 mmHg 43%
    12:00 +14°C° 0 mm 7 mps 754 mmHg 43%
    13:00 +14°C° 0 mm 7 mps 754 mmHg 43%
    14:00 +14°C° 0 mm 7 mps 754 mmHg 43%
    15:00 +14°C° 0 mm 7 mps 753 mmHg 46%
    16:00 +13°C° 0 mm 6 mps 753 mmHg 48%
    17:00 +13°C° 0 mm 5 mps 753 mmHg 50%
    18:00 +12°C° 0 mm 5 mps 753 mmHg 53%
    19:00 +11°C° 0 mm 4 mps 753 mmHg 57%
    20:00 +10°C° 0 mm 4 mps 753 mmHg 60%
    21:00 +10°C° 0 mm 3 mps 753 mmHg 64%
    22:00 +10°C° 0 mm 3 mps 753 mmHg 69%
    23:00 +9°C° 0 mm 3 mps 753 mmHg 73%

    Day after tomorrow, 28 September, Friday

    Time Temperature Precipitation Wind Pressure Humidity
    00:00 +9°C° 0 mm 3 mps 753 mmHg 77%
    01:00 +9°C° 0 mm 2 mps 753 mmHg 81%
    02:00 +9°C° 0 mm 2 mps 752 mmHg 85%
    03:00 +9°C° 0 mm 2 mps 752 mmHg 87%
    04:00 +8°C° 0 mm 3 mps 752 mmHg 88%
    05:00 +8°C° 0 mm 3 mps 752 mmHg 90%
    06:00 +9°C° 0 mm 3 mps 752 mmHg 86%
    07:00 +11°C° 0 mm 3 mps 751 mmHg 82%
    08:00 +12°C° 0 mm 4 mps 751 mmHg 78%
    09:00 +14°C° 0 mm 4 mps 751 mmHg 72%
    10:00 +17°C° 0 mm 4 mps 751 mmHg 66%
    11:00 +19°C° 0 mm 5 mps 750 mmHg 60%
    12:00 +19°C° 0 mm 5 mps 750 mmHg 58%
    13:00 +20°C° 0 mm 5 mps 749 mmHg 55%
    14:00 +21°C° 0 mm 5 mps 749 mmHg 52%
    15:00 +20°C° 0 mm 4 mps 748 mmHg 55%
    16:00 +20°C° 0 mm 3 mps 748 mmHg 58%
    17:00 +19°C° 0 mm 3 mps 747 mmHg 61%
    18:00 +18°C° 0 mm 3 mps 747 mmHg 65%
    19:00 +17°C° 0 mm 3 mps 748 mmHg 68%
    20:00 +16°C° 0 mm 3 mps 748 mmHg 71%
    21:00 +16°C° 0 mm 3 mps 747 mmHg 72%
    22:00 +16°C° 0 mm 3 mps 747 mmHg 72%
    23:00 +16°C° 0 mm 3 mps 747 mmHg 72%

    29 September, Saturday

    Time Temperature Precipitation Wind Pressure Humidity
    00:00 +14°C° 0 mm 3 mps 747 mmHg 73%
    01:00 +14°C° 0 mm 3 mps 747 mmHg 74%
    02:00 +15°C° 0 mm 2 mps 747 mmHg 75%
    03:00 +15°C° 0 mm 2 mps 747 mmHg 77%
    04:00 +14°C° 0 mm 2 mps 747 mmHg 79%
    05:00 +14°C° 0 mm 1 mps 747 mmHg 80%
    06:00 +15°C° 0.1 mm 1 mps 747 mmHg 80%
    07:00 +15°C° 0.1 mm 1 mps 747 mmHg 79%
    08:00 +16°C° 0.1 mm 1 mps 747 mmHg 79%
    09:00 +16°C° 0 mm 1 mps 747 mmHg 76%
    10:00 +17°C° 0 mm 2 mps 747 mmHg 74%
    11:00 +18°C° 0 mm 2 mps 748 mmHg 72%
    12:00 +18°C° 0.1 mm 3 mps 747 mmHg 72%
    13:00 +18°C° 0.1 mm 3 mps 747 mmHg 72%
    14:00 +18°C° 0.1 mm 4 mps 747 mmHg 72%
    15:00 +17°C° 0.1 mm 4 mps 747 mmHg 75%
    16:00 +15°C° 0.1 mm 5 mps 747 mmHg 77%
    17:00 +14°C° 0.1 mm 6 mps 748 mmHg 80%
    18:00 +13°C° 0.3 mm 5 mps 748 mmHg 81%
    19:00 +13°C° 0.3 mm 5 mps 749 mmHg 82%
    20:00 +12°C° 0.3 mm 5 mps 749 mmHg 83%
    21:00 +12°C° 0.2 mm 5 mps 749 mmHg 83%
    22:00 +12°C° 0.2 mm 5 mps 750 mmHg 84%
    23:00 +12°C° 0.2 mm 5 mps 750 mmHg 84%

    30 September, Sunday

    Time Temperature Precipitation Wind Pressure Humidity
    00:00 +10°C° 0.1 mm 5 mps 750 mmHg 84%
    01:00 +10°C° 0.1 mm 6 mps 750 mmHg 83%
    02:00 +10°C° 0.1 mm 6 mps 751 mmHg 83%
    03:00 +10°C° 0 mm 6 mps 751 mmHg 82%
    04:00 +10°C° 0 mm 6 mps 752 mmHg 82%
    05:00 +9°C° 0 mm 6 mps 752 mmHg 81%
    06:00 +9°C° 0 mm 6 mps 752 mmHg 78%
    07:00 +10°C° 0 mm 6 mps 753 mmHg 75%
    08:00 +10°C° 0 mm 6 mps 753 mmHg 73%
    09:00 +11°C° 0 mm 6 mps 753 mmHg 66%
    10:00 +13°C° 0 mm 6 mps 754 mmHg 59%
    11:00 +14°C° 0 mm 6 mps 754 mmHg 52%
    12:00 +15°C° 0 mm 6 mps 754 mmHg 49%
    13:00 +15°C° 0 mm 6 mps 753 mmHg 46%
    14:00 +15°C° 0 mm 5 mps 753 mmHg 43%
    15:00 +15°C° 0 mm 5 mps 753 mmHg 44%
    16:00 +14°C° 0 mm 4 mps 753 mmHg 46%
    17:00 +13°C° 0 mm 4 mps 753 mmHg 48%
    18:00 +12°C° 0 mm 3 mps 753 mmHg 50%
    19:00 +11°C° 0 mm 3 mps 754 mmHg 52%
    20:00 +10°C° 0 mm 3 mps 754 mmHg 54%
    21:00 +10°C° 0 mm 3 mps 754 mmHg 56%
    22:00 +9°C° 0 mm 3 mps 754 mmHg 57%
    23:00 +9°C° 0 mm 3 mps 754 mmHg 58%

    1 October, Monday

    Time Temperature Precipitation Wind Pressure Humidity
    00:00 +9°C° 0 mm 3 mps 753 mmHg 59%
    01:00 +8°C° 0 mm 3 mps 753 mmHg 61%
    02:00 +8°C° 0 mm 3 mps 753 mmHg 62%
    03:00 +8°C° 0 mm 3 mps 753 mmHg 64%
    04:00 +7°C° 0 mm 3 mps 753 mmHg 65%
    05:00 +7°C° 0 mm 3 mps 753 mmHg 67%
    06:00 +7°C° 0 mm 4 mps 753 mmHg 63%
    07:00 +8°C° 0 mm 4 mps 752 mmHg 59%
    08:00 +9°C° 0 mm 5 mps 752 mmHg 55%
    09:00 +10°C° 0 mm 5 mps 752 mmHg 50%
    10:00 +11°C° 0 mm 6 mps 752 mmHg 45%
    11:00 +14°C° 0 mm 6 mps 751 mmHg 40%
    12:00 +15°C° 0 mm 6 mps 751 mmHg 39%
    13:00 +15°C° 0 mm 6 mps 750 mmHg 38%
    14:00 +16°C° 0 mm 5 mps 749 mmHg 37%
    15:00 +15°C° 0 mm 5 mps 749 mmHg 40%
    16:00 +15°C° 0 mm 4 mps 749 mmHg 43%
    17:00 +14°C° 0 mm 3 mps 748 mmHg 46%
    18:00 +13°C° 0 mm 4 mps 748 mmHg 47%
    19:00 +12°C° 0 mm 4 mps 748 mmHg 48%
    20:00 +12°C° 0 mm 4 mps 748 mmHg 49%
    21:00 +11°C° 0 mm 4 mps 748 mmHg 49%
    22:00 +11°C° 0 mm 4 mps 747 mmHg 49%
    23:00 +11°C° 0 mm 4 mps 747 mmHg 49%
    Show more